GSAT0207 (GALILEO 15) (41859 NORAD) Tracking and Keplerian Element Data

This shows tracking and keplerian element data for the satellite.

Feedback or suggestion? Click here.




ElementValue
Catalog41859
NameGSAT0207 (GALILEO 15)
Epoch Orbit1503
Epoch Day113.2744835
Epoch Year2019
RAAN173.5454
Inclination54.5969
Eccentricity0.0005556
Argument of Perigee286.362
Mean Anonmoly73.6566
Mean Motion1.70473893
Decay Rate9E-08
L11 41859U 16069A 19113.27448350 .00000009 00000-0 00000-0 0 9996
L22 41859 54.5969 173.5454 0005556 286.3620 73.6566 1.70473893 15038

Live tracking and technical data element details for GSAT0207 (GALILEO 15) (NORAD 41859). GSAT0207 (GALILEO 15) can be tracked NOW for your location showing map with azimuth and elevation plus other details from your city location.

Track the satellite on the map from your city or location and see movement details for azimuth, elevation, latitude, longitude, range, height, and movement on the map or in text.







IsCatalogInMostPopularTable: catalog: 41859, numindb: 224
Update: records affected: 1



GetName: 41859 GSAT0207 (GALILEO 15)

Hit Count: updated at: Wed, 24 Apr 2019 18:40:56 GMT